Weather History for Ahmedabad, India

Change the Weather History Date:

Sunday, October 21, 2012

  Actual Average Record
Temperature  
Mean Temperature 83 °F -  
Max Temperature 95 °F 89 °F 100 °F (2000)
Min Temperature 71 °F 64 °F 62 °F (2005)
Cooling Degree Days 18    
Growing Degree Days 33 (Base 50)    
Moisture  
Dew Point 66 °F    
Average Humidity 57    
Maximum Humidity 89    
Minimum Humidity 20    
Precipitation  
Precipitation 0.00 in 0.02 in - ()
Sea Level Pressure  
Sea Level Pressure 29.90 in    
Wind  
Wind Speed 1 mph ()    
Max Wind Speed 6 mph    
Max Gust Speed -    
Visibility 2.6 miles    
Events      
Averages and records for this station are not official NWS values.
T = Trace of Precipitation, MM = Missing Value Source: Averaged Metar Reports

Daily Weather History Graph

Daily Weather History Graph

Search for Another Location

Airport:

Trip Planner

Search our weather history database for the weather conditions in past years. The results will help you decide how hot, cold, wet, or windy it might be!

Date:

Astronomy

Oct. 21, 2012 Rise Set
Actual Time 6:38 AM IST 6:08 PM IST
Civil Twilight 6:16 AM IST 6:31 PM IST
Nautical Twilight 5:49 AM IST 6:57 PM IST
Astronomical Twilight 5:23 AM IST 7:24 PM IST
Moon 12:24 PM IST (10/21) 11:45 PM IST (10/21)
Length of Visible Light 12h 15m
Length of Day
11h 29m
Waxing Crescent, 40% of the Moon is Illuminated
Oct 21
Waxing Crescent
Oct 22
First Quarter
Oct 30
Full
Nov 7
Last Quarter
Nov 14
New

Hourly Weather History & Observations

Time (IST) Temp. Heat Index Dew Point Humidity Pressure Visibility Wind Dir Wind Speed Gust Speed Precip Events Conditions
12:10 AM 77.0 °F - 69.8 °F 78% 29.89 in 2.5 mi Calm Calm - N/A   Haze
12:40 AM 77.0 °F - 69.8 °F 78% 29.89 in 2.5 mi Calm Calm - N/A   Haze
1:10 AM 77.0 °F - 69.8 °F 78% 29.89 in 2.5 mi Calm Calm - N/A   Haze
1:40 AM 75.2 °F - 71.6 °F 89% 29.89 in 2.5 mi Calm Calm - N/A   Haze
2:10 AM 75.2 °F - 71.6 °F 89% 29.86 in 2.5 mi Calm Calm - N/A   Haze
2:30 AM 74 °F - 67 °F 74% 29.89 in 1 mi Calm Calm - -   Haze
2:40 AM 75.2 °F - 71.6 °F 89% 29.86 in 2.5 mi Calm Calm - N/A   Haze
3:10 AM 75.2 °F - 69.8 °F 83% 29.86 in 2.5 mi Calm Calm - N/A   Haze
3:40 AM 77.0 °F - 64.4 °F 65% 29.89 in 2.5 mi Calm Calm - N/A   Haze
4:10 AM 75.2 °F - 66.2 °F 73% 29.89 in 2.5 mi Calm Calm - N/A   Haze
4:40 AM 75.2 °F - 66.2 °F 73% 29.89 in 2.5 mi Calm Calm - N/A   Haze
5:10 AM 73.4 °F - 66.2 °F 78% 29.89 in 2.5 mi Calm Calm - N/A   Haze
5:40 AM 73.4 °F - 68.0 °F 83% 29.89 in 2.5 mi Calm Calm - N/A   Haze
6:10 AM 73.4 °F - 68.0 °F 83% 29.92 in 2.2 mi Calm Calm - N/A   Haze
7:40 AM 75.2 °F - 68.0 °F 78% 29.95 in 1.2 mi Calm Calm - N/A   Haze
8:10 AM 77.0 °F - 68.0 °F 74% 29.95 in 1.2 mi NNE 3.5 mph - N/A   Haze
8:30 AM 78 °F - 66 °F 58% 29.97 in 2 mi Calm Calm - -   Haze
9:40 AM 86.0 °F 88.2 °F 66.2 °F 51% 29.98 in 1.9 mi NE 3.5 mph - N/A   Smoke
10:40 AM 91.4 °F 92.1 °F 62.6 °F 38% 29.98 in 2.5 mi NE 4.6 mph - N/A   Smoke
11:30 AM 91 °F - 60 °F 25% 29.97 in 2 mi NNE 3.5 mph - -  
11:40 AM 93.2 °F 93.3 °F 60.8 °F 34% 29.95 in 3.7 mi ENE 4.6 mph - N/A   Unknown
12:10 PM 95.0 °F 96.0 °F 62.6 °F 34% 29.92 in 3.7 mi NE 5.8 mph - N/A   Unknown
12:40 PM 96.8 °F 98.0 °F 62.6 °F 32% 29.92 in 3.7 mi East 5.8 mph - N/A   Unknown
1:10 PM 98.6 °F 100.0 °F 62.6 °F 30% 29.89 in 3.7 mi NNE 4.6 mph - N/A   Unknown
1:40 PM 98.6 °F 100.0 °F 62.6 °F 30% 29.89 in 3.7 mi NNE 4.6 mph - N/A   Unknown
2:10 PM 98.6 °F 100.0 °F 62.6 °F 30% 29.86 in 3.7 mi Variable 3.5 mph - N/A   Unknown
2:30 PM 95 °F - 59 °F 20% 29.90 in 2 mi NNW 3.5 mph - -  
2:40 PM 98.6 °F 100.0 °F 62.6 °F 30% 29.86 in 3.7 mi Variable 3.5 mph - N/A   Unknown
3:10 PM 98.6 °F 99.4 °F 60.8 °F 29% 29.86 in 3.7 mi Calm Calm - N/A   Unknown
3:40 PM 98.6 °F 101.0 °F 64.4 °F 32% 29.86 in 3.7 mi Variable 3.5 mph - N/A   Unknown
4:10 PM 96.8 °F 98.0 °F 62.6 °F 32% 29.83 in 3.7 mi Variable 3.5 mph - N/A   Unknown
4:40 PM 96.8 °F 99.0 °F 64.4 °F 34% 29.83 in 3.7 mi Variable 3.5 mph - N/A   Unknown
5:10 PM 96.8 °F 99.0 °F 64.4 °F 34% 29.86 in 3.7 mi NNE 3.5 mph - N/A   Unknown
5:30 PM 92 °F - 65 °F 31% 29.88 in 2 mi North 3.5 mph - -  
6:10 PM 87.8 °F 91.4 °F 68.0 °F 52% 29.86 in 2.5 mi Calm Calm - N/A   Smoke
6:40 PM 87.8 °F 89.4 °F 64.4 °F 46% 29.86 in 2.5 mi ENE 3.5 mph - N/A   Smoke
7:10 PM 86.0 °F 89.4 °F 68.0 °F 55% 29.89 in 2.5 mi NE 3.5 mph - N/A   Smoke
7:40 PM 86.0 °F 87.3 °F 64.4 °F 48% 29.89 in 2.5 mi ENE 3.5 mph - N/A   Smoke
8:10 PM 84.2 °F 86.6 °F 66.2 °F 55% 29.89 in 2.5 mi NNE 4.6 mph - N/A   Smoke
8:30 PM 80 °F - 70 °F 65% 29.93 in 2 mi Calm Calm - -  
8:40 PM 82.4 °F 83.9 °F 64.4 °F 54% 29.92 in 2.5 mi NE 3.5 mph - N/A   Smoke
9:10 PM 80.6 °F 83.2 °F 68.0 °F 65% 29.92 in 2.5 mi Variable 2.3 mph - N/A   Smoke
10:10 PM 78.8 °F - 68.0 °F 69% 29.92 in 2.5 mi Variable 2.3 mph - N/A   Haze
10:40 PM 78.8 °F - 69.8 °F 74% 29.92 in 2.5 mi Variable 2.3 mph - N/A   Haze
11:10 PM 77.0 °F - 69.8 °F 78% 29.92 in 2.5 mi Variable 2.3 mph - N/A   Haze
11:30 PM 76 °F - 69 °F 75% 29.92 in 2 mi Calm Calm - -  
11:40 PM 77.0 °F - 69.8 °F 78% 29.92 in 2.5 mi NE 3.5 mph - N/A   Haze